Погода в Мирном

Россия / Челябинская область     55°15′05″N   61°44′01″E
темп.,
°C
ветер,
м/с
пор.,
м/с
влажн.,
%
обл.,
%
осадки,
мм/ч
давл.,
гПа
погр.,
м
18 мая, вт
вт1823:00+19зсз4862100 1.1 1016121
02:00+16св337599 0.0 101639
05:00+14ссз2285100 0.6 101724
08:00+20зюз2557100 0.1 1014175
11:00+25сз674699 1.2 1014942
14:00+27ссз68315 0.0 10132883
17:00+27с883144 0.0 10132418
20:00+19св612627 0.2 1016825
19 мая, ср
ср1923:00+15ссв713745 0.7 1019592
02:00+12ссв6117895 0.0 1020491
05:00+10ссв510830 0.0 1022410
08:00+13св686432 0.0 1023953
11:00+17св67505 0.0 10231367
14:00+19св56415 0.0 10231598
17:00+20св4539100 0.0 10231717
20:00+17св34535 0.0 102381
20 мая, чт
чт2023:00+13св3361100 0.0 102429
02:00+12в116530 0.0 102411
05:00+11ююз226918 0.0 102512
08:00+16зюз225161 0.0 1025350
11:00+21юз1138100 0.0 10241329
14:00+22юз2231100 0.0 10231464
17:00+23юз222997 0.0 10221645
20:00+20ююз3444100 0.0 102149
21 мая, пт
пт2123:00+16юз224638 0.0 102112
02:00+15юз335024 0.0 102122
05:00+13юз22535 0.0 102111
08:00+19юз34422 0.0 1022262
11:00+24ююз44315 0.0 10211442
14:00+25ю45272 0.0 10201998
17:00+26ю56260 0.0 10192147
20:00+22ю33400 0.0 101945
22 мая, сб
сб2223:00+18ююв45413 0.0 101959
02:00+16ю46445 0.0 101891
05:00+15ююз346099 0.0 101862
08:00+20юз46555 0.0 1018409
11:00+24зюз46410 0.0 10181776
14:00+26зюз462960 0.0 10173011
17:00+25з773212 0.0 10182269
20:00+22з474846 0.0 1018151